www.pogodaiklimat.ru

Погода и климат >> Архив погоды >> Россия >> Свердловская область >> Серов


АРХИВ ПОГОДЫ в Серове

Время (UTC), дата Ветер
(напр.,м/с)
 
Видим.   Явления Облачность Т
(С)
Тd
(С)
f
(%)
Тe
(С)
Тes
(С)
Комфортность P
(гПа)
Po
(гПа)
Тmin
(С)
Tmax
(С)
R
(мм)
R24
(мм)
S
(см)
09 15.04 ЮЗ 4-10
{12}
50 км 10/10 600 м
[Sc]
+5.2 -14.2 23 +2 +2 по сезону 1012.5 997.2
12 15.04 З 5
{13}
50 км 10/10 600 м
[Sc]
+5.3 -9.8 33 +2 +2 прохладно 1010.5 995.2
15 15.04 З 4
{14}
10 км 9/9 600 м
[Sc]
+3.3 -5.2 54 -1 -1 прохладно 1009.1 993.7 +5.7
18 15.04 З 2 10 км 10/10 600 м
[Sc]
+1.5 -4.0 67 -2 -2 по сезону 1007.2 991.8
21 15.04 З 2 10 км 10/10 600 м
[Sc]
+1.5 -3.6 69 -2 -2 по сезону 1005.2 989.8
00 16.04 С 3
{10}
2000 м слаб. снег 10/10 300 м
[Frnb]
-0.8 -2.3 90 -6 -6 по сезону 1005.0 989.5
03 16.04 З 2 50 км {снег} 9/8 300 м
[Cb calv Ci fib]
-0.6 -7.0 62 -4 -3 прохладно 1004.9 989.4 -1.4 1 1
06 16.04 С 4
{10}
50 км {снег} 10/8 300 м
[Cb calv Ci fib]
-0.4 -11.1 44 -5 -4 холодно 1005.8 990.3
09 16.04 СЗ 4
{11}
50 км 10/8 300 м
[Cb calv Ci fib]
+0.2 -15.7 29 -4 -3 очень
холодно
1007.2 991.7
12 16.04 С 5-13
{13}
20 км 10/10 600 м
[Sc]
-3.6 -11.1 56 -10 -10 очень
холодно
1011.1 995.3
15 16.04 С 6-10
{14}
10 км 9/8 300 м
[Cb calv Ci fib]
-5.6 -14.2 51 -13 -13 очень
холодно
1015.2 999.2 +1.5
18 16.04 С 6-13
{15}
2000 м слаб. снег 10/10 300 м
[Frnb]
-8.8 -12.5 75 -17 -17 очень
холодно
1018.6 1002.4
21 16.04 С 5-11
{13}
10 км {снег} 10/10 600 м
[Sc]
-9.5 -14.2 69 -17 -17 очень
холодно
1021.1 1004.8
00 17.04 С 5
{13}
2000 м слаб. снег 10/10 300 м
[Frnb]
-10.6 -14.6 72 -18 -18 очень
холодно
1023.1 1006.7
03 17.04 С 4
{12}
50 км {снег} ясно -10.3 -18.6 51 -17 -16 очень
холодно
1025.5 1009.0 -11.2 0.7 <0.5
06 17.04 С 6-10
{12}
50 км {снег} 3/3 600 м
[Cu hum]
-6.3 -17.0 42 -14 -11 очень
холодно
1027.1 1010.9
09 17.04 С 4
{11}
50 км ясно -2.4 -17.8 30 -7 -1 очень
холодно
1027.2 1011.2
12 17.04 СЗ 3
{11}
50 км 4/0
[Ci fib]
+0.2 -18.8 22 -3 -0 очень
холодно
1026.9 1011.1
15 17.04 СЗ 3 10 км 6/0
[Ci fib]
-1.1 -19.1 24 -5 -5 очень
холодно
1026.6 1010.7 +0.4
18 17.04 З 3 10 км ясно -3.3 -18.6 30 -8 -8 очень
холодно
1026.5 1010.5
21 17.04 З 3 10 км ясно -5.3 -18.0 36 -10 -10 очень
холодно
1026.4 1010.3
00 18.04 З 3 10 км 3/0
[Ci fib]
-6.0 -18.4 37 -11 -11 холодно 1025.8 1009.6
03 18.04 З 4 50 км ясно -2.8 -18.3 29 -8 -6 холодно 1025.2 1009.2 -6.5
06 18.04 З 5 50 км ясно +2.6 -17.4 21 -2 +3 прохладно 1024.7 1009.0
09 18.04 З 4
{10}
50 км 3/3 600 м
[Cu hum]
+5.3 -14.8 22 +2 +7 прохладно 1024.7 1009.2
12 18.04 СЗ 4
{11}
50 км 3/3 600 м
[Cu hum]
+5.6 -15.1 21 +3 +5 прохладно 1024.3 1008.8
15 18.04 З 2 10 км ясно +3.8 -14.3 25 +2 +2 по сезону 1024.3 1008.7 +6.2
18 18.04 З 2 10 км ясно -0.6 -14.2 35 -3 -3 прохладно 1024.6 1008.7
21 18.04 З 2 10 км ясно -1.8 -13.5 40 -5 -5 прохладно 1024.0 1008.1
00 19.04 З 2 10 км ясно -3.2 -11.8 51 -7 -7 прохладно 1023.7 1007.7
03 19.04 З 3 50 км 8/8 600 м
[Sc]
+0.8 -7.2 55 -3 -3 прохладно 1022.5 1006.8 -3.3
06 19.04 З 4 50 км 9/9 600 м
[Sc]
+4.3 -5.4 49 +1 +1 по сезону 1021.4 1005.9
09 19.04 З 5 50 км 10/10 600 м
[Sc]
+5.6 -6.8 40 +2 +2 прохладно 1020.2 1004.8
12 19.04 З 4
{10}
50 км 10/10 600 м
[Sc]
+5.6 -6.6 41 +2 +2 прохладно 1019.6 1004.2
15 19.04 З 3 10 км 10/10 600 м
[Sc]
+4.3 -6.4 46 +1 +1 по сезону 1019.3 1003.9 +6.4
18 19.04 З 3 10 км 10/10 600 м
[Sc]
+3.1 -4.6 57 -0 -0 по сезону 1019.6 1004.0
21 19.04 З 3 10 км 10/10 600 м
[]
+2.2 -4.3 62 -2 -2 по сезону 1019.4 1003.8
00 20.04 З 2 10 км 10/10 600 м
[Sc]
+1.5 -4.0 67 -2 -2 по сезону 1019.4 1003.8
03 20.04 З 2 50 км 9/9 600 м
[Sc]
+2.9 -3.5 63 0 +1 по сезону 1019.9 1004.3 +1.4
06 20.04 С 2 50 км 9/9 300 м
[Cb calv]
+5.8 -3.3 52 +4 +5 по сезону 1020.3 1004.9
09 20.04 С 3 50 км 10/9 300 м
[Cb calv Ci fib]
+8.0 -5.4 38 +6 +7 по сезону 1020.2 1004.9
12 20.04 СЗ 1 50 км 9/9 300 м
[Cb calv]
+8.7 -6.4 34 +9 +9 по сезону 1020.5 1005.2
15 20.04 СЗ 2 10 км 9/9 300 м
[Cb calv]
+6.3 -4.6 46 +5 +5 по сезону 1021.1 1005.7 +9.3
18 20.04 З 2 10 км 9/9 600 м
[Sc]
+4.5 -4.1 54 +2 +2 по сезону 1022.1 1006.6
21 20.04 З 2 10 км 10/10 600 м
[Sc]
+2.5 -3.5 65 -0 -0 по сезону 1022.0 1006.4
00 21.04 З 2 10 км 10/10 600 м
[Sc]
+2.6 -3.5 64 -0 -0 по сезону 1021.4 1005.8
03 21.04 З 3 50 км 10/10 600 м
[Sc]
+3.9 -3.6 58 +1 +1 по сезону 1020.2 1004.7 +2.3
06 21.04 З 4
{11}
50 км 9/9 600 м
[Cu Sc]
+7.7 -4.0 43 +5 +6 по сезону 1018.9 1003.6
09 21.04 З 6
{14}
50 км 9/9 600 м
[Cu Sc]
+9.3 -5.2 35 +6 +7 по сезону 1017.6 1002.5
12 21.04 З 6-10
{11}
50 км 9/9 600 м
[Sc]
+10.3 -6.9 29 +8 +8 по сезону 1017.1 1002.0
15 21.04 З 3
{11}
10 км 10/10 600 м
[Sc]
+8.3 -5.7 37 +6 +6 по сезону 1017.6 1002.4 +10.7
18 21.04 СЗ 2 10 км 9/9 600 м
[Sc]
+6.9 -4.3 45 +5 +5 тепло 1018.2 1002.9
21 21.04 СЗ 2 10 км 8/8 600 м
[Sc]
+3.6 -3.4 60 +1 +1 по сезону 1018.6 1003.1
00 22.04 З 2 10 км 10/10 600 м
[Sc]
+3.7 -3.2 61 +1 +1 по сезону 1018.3 1002.8
03 22.04 З 2 50 км 9/9 600 м
[Sc]
+5.5 -0.7 64 +3 +4 по сезону 1018.3 1002.9 +2.6
06 22.04 СЗ 2 50 км 8/8 300 м
[Cb calv]
+10.2 -1.3 45 +9 +11 тепло 1017.3 1002.2

 

Местоположение метеостанции Серов (Свердловская область, Россия): широта 59.60 долгота 60.53 высота над уровнем моря 130 м.

В архиве по умолчанию представлена погода в Серове за последнюю неделю. Архивные данные за месяц целиком и за предыдущие месяцы, начиная с января 2011 года, Вы можете получить, выбрав интересующий диапазон дат из раскрывающегося списка и нажав кнопку "Ввод!".


*Определитесь, кто Вы:
робот инопланетянин человек

Внимание! Время в таблицах - всемирное. Для получения местного времени необходимо прибавить поправку, которая равна 5 ч.

Смотрите также архив погоды в соседних городах и на ближайших метеорологических станциях:

Погода в Карпинске (Свердловская область, Россия) (34 км)
Погода в Кытлыме (Свердловская область, Россия) (75 км)
Погода в Североуральске (Свердловская область, Россия) (76 км)
Погода в Верхотурье (Свердловская область, Россия) (82 км)
Погода в Гарях (Свердловская область, Россия) (103 км)
Погода в Качканаре (Свердловская область, Россия) (117 км)
Погода в Ивделе (Свердловская область, Россия) (120 км)
Погода в Кушве (Свердловская область, Россия) (149 км)
Погода в Бисере (Пермский край, Россия) (154 км)
Погода в Атымье (Свердловская область, Россия) (184 км)

Пояснения к столбцам:

Ветер - указаны скорость ветра в м/с - средняя за 10 мин, порывы в срок и между сроками (в фигурных скобках) и направление, откуда дует ветер: С - северный, СВ - северо-восточный, В - восточный, ЮВ - юго-восточный, Ю - южный, ЮЗ - юго-западный, З - западный, СЗ - северо-западный.
Видимость - горизонтальная дальность видимости в метрах или километрах. При видимости от 1 до 10 км при отсутствии осадков обычно наблюдается дымка, при ухудшении видимости до 1 км и менее - туман. В сухую погоду видимость может ухудшаться дымом, пылью или мглою.
Явления - указаны атмосферные явления, наблюдавшиеся в срок или в последний час перед сроком; фигурными скобками обозначены явления, наблюдавшиеся между сроками (за 1-3 часа до срока); квадратными скобками обозначены град или гололедные отложения с указанием их диаметра в мм.
Облачность - указаны через наклонную черту общая и нижняя облачность в баллах и высота нижней границы облаков в метрах; квадратными скобками обозначены формы облаков: Ci - перистые, Cs - перисто-слоистые, Cc - перисто-кучевые, Ac - высококучевые, As - высокослоистые, Sc - слоисто-кучевые, Ns - слоисто-дождевые, Cu - кучевые, Cb - кучево-дождевые. Подробнее классификацию облаков см. в Атласе облаков (PDF).
T - Температура воздуха - температура, измеренная на высоте 2 м над землей.
Td - Температура точки росы - температура, при понижении до которой содержащийся в воздухе водяной пар достигнет насыщения.
f - Относительная влажность воздуха - влажноcть воздуха, измеренная на высоте 2 м над землей.
Te - Эффективная температура - температура, которую ощущает одетый по сезону человек в тени. Характеристика душности погоды. При расчете учитывается влияние влажности воздуха и скорости ветра на теплоощущения человека.
Tes - Эффективная температура на солнце - температура, которую ощущает человек, с поправкой на солнечный нагрев. Характеристика знойности погоды. Зависит от высоты солнца над горизонтом, облачности и скорости ветра. Ночью, в пасмурную погоду, а также при ветре 12 м/с и более поправка равна нулю.
P - Атмосферное давление - приведенное к уровню моря атмосферное давление.
Po - Атмосферное давление - измеренное на уровне метеостанции атмосферное давление.
Tmin - Минимальная температура - минимум температуры воздуха на высоте 2 м над землей.
Tmax - Максимальная температура - максимум температуры воздуха на высоте 2 м над землей.
R - Количество осадков - Количество выпавших осадков за период времени, мм. При наведении курсора мыши на число - период времени, за который выпало указанное количество осадков.
R24 - Количество осадков - Количество выпавших осадков за 24 часа, мм.
S - Снежный покров - Высота снежного покрова, см. При наведении курсора мыши на число - состояние снежного покрова и степень покрытия местности в баллах.